Location: Poughquag
(41.6090°N, 73.6820°W)
Time: 09:36:53
(UTC-04:00)

Tiros 1 - All Passes

Search period start: 14 October 2019 00:00
Search period end: 24 October 2019 00:00
Orbit: 630 x 664 km, 48.4° (Epoch: 13 October)

Date Brightness Start Highest point End Pass type
(mag) Time Alt. Az. Time Alt. Az. Time Alt. Az.
14 Oct - 03:22:17 10° S 03:25:47 20° SE 03:29:18 10° E visible
14 Oct - 05:02:42 10° WSW 05:07:31 88° SE 05:12:22 10° ENE visible
14 Oct - 06:45:34 10° W 06:50:07 40° N 06:54:40 10° ENE daylight
14 Oct - 08:28:31 10° WNW 08:33:04 40° N 08:37:37 10° E daylight
14 Oct - 10:10:49 10° WNW 10:15:39 86° SSW 10:20:25 10° ESE daylight
14 Oct - 11:53:58 10° W 11:57:21 19° SW 12:00:43 10° S daylight
15 Oct - 03:47:01 10° SSW 03:51:31 43° SE 03:56:04 10° ENE visible
15 Oct - 05:28:58 10° W 05:33:42 56° NNW 05:38:27 10° ENE visible
15 Oct - 07:12:06 10° WNW 07:16:33 36° N 07:21:01 10° ENE daylight
15 Oct - 08:54:41 10° WNW 08:59:26 55° NNE 09:04:08 10° E daylight
15 Oct - 10:37:03 10° WNW 10:41:37 44° SW 10:46:08 10° SSE daylight
16 Oct - 02:32:29 10° S 02:35:48 19° SE 02:39:08 10° E visible
16 Oct - 04:12:41 10° WSW 04:17:29 83° SSE 04:22:19 10° ENE visible
16 Oct - 05:55:29 10° W 06:00:03 41° N 06:04:37 10° ENE visible
16 Oct - 07:38:28 10° WNW 07:43:01 40° N 07:47:32 10° E daylight
16 Oct - 09:20:47 10° WNW 09:25:37 90° NNE 09:30:24 10° ESE daylight
16 Oct - 11:03:47 10° W 11:07:22 21° SW 11:10:56 10° S daylight
17 Oct - 02:57:05 10° SSW 03:01:31 39° SE 03:06:00 10° ENE visible
17 Oct - 04:38:54 10° WSW 04:43:39 59° NNW 04:48:25 10° ENE visible
17 Oct - 06:22:01 10° WNW 06:26:29 36° N 06:30:57 10° ENE visible
17 Oct - 08:04:38 10° WNW 08:09:22 53° NNE 08:14:05 10° E daylight
17 Oct - 09:46:59 10° WNW 09:51:37 47° SW 09:56:11 10° SE daylight
18 Oct - 01:42:44 10° S 01:45:49 17° SE 01:48:55 10° E night (unlit)
18 Oct - 03:22:41 10° SW 03:27:27 79° SSE 03:32:17 10° ENE visible
18 Oct - 05:05:25 10° W 05:09:59 42° NNW 05:14:34 10° ENE visible
18 Oct - 06:48:25 10° WNW 06:52:56 39° N 06:57:27 10° ENE daylight
18 Oct - 08:30:44 10° WNW 08:35:35 85° NNE 08:40:23 10° ESE daylight
18 Oct - 10:13:38 10° W 10:17:23 23° SW 10:21:07 10° S daylight
19 Oct - 02:07:09 10° SSW 02:11:31 36° SE 02:15:55 10° ENE night (unlit)
19 Oct - 03:48:51 10° WSW 03:53:36 62° NNW 03:58:23 10° ENE visible
19 Oct - 05:31:57 10° WNW 05:36:25 36° N 05:40:53 10° ENE visible
19 Oct - 07:14:36 10° WNW 07:19:19 51° NNE 07:24:01 10° E daylight
19 Oct - 08:56:55 10° WNW 09:01:36 51° SW 09:06:13 10° SE daylight
20 Oct - 00:53:01 10° SSE 00:55:50 16° SE 00:58:41 10° E night (unlit)
20 Oct - 02:32:40 10° SW 02:37:25 74° SSE 02:42:14 10° ENE visible
20 Oct - 04:15:20 10° W 04:19:55 43° NNW 04:24:31 10° ENE visible
20 Oct - 05:58:21 10° WNW 06:02:52 38° N 06:07:22 10° ENE visible
20 Oct - 07:40:42 10° WNW 07:45:32 80° NNE 07:50:22 10° ESE daylight
20 Oct - 09:23:30 10° W 09:27:24 25° SW 09:31:16 10° S daylight
21 Oct - 01:17:15 10° SSW 01:21:31 34° SE 01:25:49 10° ENE night (unlit)
21 Oct - 02:58:48 10° WSW 03:03:33 65° NNW 03:08:21 10° ENE visible
21 Oct - 04:41:53 10° WNW 04:46:20 36° N 04:50:49 10° ENE visible
21 Oct - 06:24:34 10° WNW 06:29:15 49° NNE 06:33:56 10° E visible
21 Oct - 08:06:51 10° WNW 08:11:35 55° SW 08:16:15 10° SE daylight
21 Oct - 09:51:51 10° WSW 09:52:59 11° SW 09:54:07 10° SW daylight
22 Oct - 00:03:21 10° SSE 00:05:51 14° SE 00:08:23 10° E night (unlit)
22 Oct - 01:42:41 10° SW 01:47:24 69° SSE 01:52:11 10° ENE night (unlit)
22 Oct - 03:25:15 10° W 03:29:51 44° NNW 03:34:28 10° ENE visible
22 Oct - 05:08:18 10° WNW 05:12:47 38° N 05:17:17 10° ENE visible
22 Oct - 06:50:40 10° WNW 06:55:30 76° NNE 07:00:19 10° ESE daylight
22 Oct - 08:33:22 10° W 08:37:24 27° SW 08:41:24 10° SSE daylight
23 Oct - 00:27:21 10° SSW 00:31:31 31° SE 00:35:43 10° ENE night (unlit)
23 Oct - 02:08:45 10° WSW 02:13:29 68° NNW 02:18:18 10° ENE night (unlit)
23 Oct - 03:51:48 10° WNW 03:56:15 37° N 04:00:44 10° ENE visible
23 Oct - 05:34:31 10° WNW 05:39:11 47° NNE 05:43:51 10° E visible
23 Oct - 07:16:48 10° WNW 07:21:33 60° SW 07:26:16 10° SE daylight
23 Oct - 09:01:13 10° WSW 09:03:01 12° SW 09:04:48 10° SSW daylight
23 Oct - 23:13:45 10° SSE 23:15:53 13° SE 23:18:02 10° ESE night (unlit)
